This demonstration page uses our WeatherBlox Daily Observations layout. Learn more.

38.88101, -77.10428

Hourly Observations for June 22, 2019

Temp ( °F °C ) Dew Point ( °F °C ) Humidity (%) Winds ( mph kmh ) Pressure ( in mb ) Visibility ( mi km ) Precip ( " mm )
12:52 am 00:52 Mostly Cloudy 72 22.2 52 11.1 50 50 NNW 5 7 29.96 1015 10 16.0934 0 0
1:52 am 01:52 Mostly Cloudy 71 21.7 50 10 47 47 NNW 6 9 29.96 1015 10 16.0934 0 0
2:52 am 02:52 Mostly Clear 68 20 50 10 53 53 NW 9 15 29.96 1015 10 16.0934 0 0
3:52 am 03:52 Partly Cloudy 69 20.6 47 8.3 45 45 NW 13 20 29.96 1015 10 16.0934 0 0
4:52 am 04:52 Mostly Cloudy 69 20.6 45 7.2 42 42 NW 14 22 29.96 1015 10 16.0934 0 0
5:52 am 05:52 Mostly Cloudy 67 19.4 47 8.3 49 49 WNW 5 7 29.98 1015 10 16.0934 0 0
6:52 am 06:52 Mostly Cloudy 69 20.6 47 8.3 45 45 NW 8 13 29.99 1016 10 16.0934 0 0
7:52 am 07:52 Mostly Cloudy 68 20 48 8.9 49 49 NNW 13 20 30 1016 10 16.0934 0 0
8:52 am 08:52 Mostly Cloudy 70 21.1 50 10 49 49 NW 9 15 30.01 1016 10 16.0934 0 0
9:52 am 09:52 Mostly Cloudy 75 23.9 53 11.7 46 46 NW 9 15 30.01 1016 10 16.0934 0 0
10:52 am 10:52 Partly Cloudy 77 25 54 12.2 45 45 NW 10 17 30.01 1016 10 16.0934 0 0
11:52 am 11:52 Partly Cloudy 79 26.1 54 12.2 42 42 NNW 9 15 30.02 1017 10 16.0934 0 0
12:52 pm 12:52 Partly Cloudy 79 26.1 52 11.1 39 39 WNW 9 15 30.01 1016 10 16.0934 0 0
1:52 pm 13:52 Partly Cloudy 80 26.7 53 11.7 39 39 N 8 13 29.99 1016 10 16.0934 0 0
2:52 pm 14:52 Partly Cloudy 82 27.8 49 9.4 32 32 NW 15 24 30 1016 10 16.0934 0 0
3:52 pm 15:52 Partly Cloudy 83 28.3 50 10 32 32 NW 13 20 29.99 1016 10 16.0934 0 0
4:52 pm 16:52 Partly Cloudy 83 28.3 49 9.4 31 31 NW 12 19 29.99 1016 10 16.0934 0 0
5:52 pm 17:52 Partly Cloudy 82 27.8 49 9.4 32 32 NW 12 19 29.99 1016 10 16.0934 0 0
6:52 pm 18:52 Mostly Sunny 81 27.2 48 8.9 32 32 WNW 12 19 30 1016 10 16.0934 0 0
7:52 pm 19:52 Mostly Sunny 79 26.1 47 8.3 32 32 NW 10 17 30 1016 10 16.0934 0 0
8:52 pm 20:52 Mostly Clear 77 25 48 8.9 36 36 NNW 8 13 30.01 1016 10 16.0934 0 0
9:52 pm 21:52 Clear 76 24.4 49 9.4 39 39 NW 7 11 30.02 1017 10 16.0934 0 0
10:52 pm 22:52 Clear 74 23.3 52 11.1 46 46 N 5 7 30.04 1017 10 16.0934 0 0
11:52 pm 23:52 Clear 71 21.7 53 11.7 53 53 SW 3 6 30.06 1018 10 16.0934 0 0

Powered by AerisWeather